This is the latest recevied weather packets stored in our database for station/object SQ5BUJ-13. If no packets are shown the sender has not sent any weather packets the latest 10 day(s).
| Time | Temp. | Humidity | Pressure | Rain* | Wind** | Luminosity | Snow |
|---|---|---|---|---|---|---|---|
| 1778152221 | 13.89° C | 79% | 1011.1 hPa | - | - | - | - |
| 1778150595 | 13.89° C | 79% | 1011.1 hPa | - | - | - | - |
| 1778148921 | 13.89° C | 79% | 1011.1 hPa | - | - | - | - |
| 1778147173 | 15.56° C | 75% | 1010.1 hPa | - | - | - | - |
| 1778144028 | 16.11° C | 74% | 1009.5 hPa | - | - | - | - |
| 1778142540 | 16.11° C | 74% | 1009.5 hPa | - | - | - | - |
| 1778141021 | 16.11° C | 76% | 1008.6 hPa | - | - | - | - |
| 1778139441 | 16.11° C | 76% | 1008.6 hPa | - | - | - | - |
| 1778137796 | 15.56° C | 79% | 1008.3 hPa | - | - | - | - |
| 1778136261 | 15.56° C | 79% | 1008.3 hPa | - | - | - | - |
| 1778133240 | 15.56° C | 80% | 1007.8 hPa | - | - | - | - |
| 1778131606 | 15.56° C | 80% | 1007.8 hPa | - | - | - | - |
| 1778129876 | 13.89° C | 89% | 1007.3 hPa | - | - | - | - |
| 1778128371 | 13.89° C | 89% | 1007.3 hPa | - | - | - | - |
| 1778126709 | 14.44° C | 84% | 1006.7 hPa | - | - | - | - |
| 1778125096 | 14.44° C | 84% | 1006.7 hPa | - | - | - | - |
| 1778123467 | 14.44° C | 85% | 1006.6 hPa | - | - | - | - |
| 1778120276 | 14.44° C | 85% | 1006.6 hPa | - | - | - | - |
| 1778118581 | 15.56° C | 77% | 1006.3 hPa | - | - | - | - |
| 1778117116 | 15.56° C | 77% | 1006.3 hPa | - | - | - | - |
| 1778115466 | 17.22° C | 63% | 1006.2 hPa | - | - | - | - |
| 1778114019 | 17.22° C | 63% | 1006.2 hPa | - | - | - | - |
| 1778112441 | 17.78° C | 61% | 1006 hPa | - | - | - | - |
| 1778110891 | 17.78° C | 61% | 1006 hPa | - | - | - | - |
| 1778109276 | 18.33° C | 59% | 1006.1 hPa | - | - | - | - |
* Rain since midnight (hover to see other rain measurements)
** Current wind speed in m/s (hover to see current wind gust speed)